Home > Weather > Gijón > Past weeks

Flag for Spain Weather for the Past 2 Weeks in Gijón, Spain

Now
55 °F

Passing clouds.


Feels Like: 52 °F
Forecast: 53 / 60 °F
Wind: 13 mph from West

Location: Asturias / Aviles

Current Time: Feb 8, 2016 at 2:10:30 AM

Latest Report: Feb 8, 2016 at 12:00 AM


Visibility: N/A

Pressure: 30.04 "Hg

Humidity: 63%

Dew point: 43 °F

Location of GijónLocation

Historic Weather in Gijón — Graph

°F

Gijón Temperature Yesterday

Maximum temperature yesterday: 55 °F (at 2:30 PM)
Minimum temperature yesterday: 45 °F (at 7:00 AM)
Average temperature yesterday: 51 °F

High & Low Weather Summary for the Past Weeks

 TemperatureHumidityPressure
High72 °F (Jan 24, 4:30 PM)100% (Jan 25, 2:00 PM)30.72 "Hg (Jan 25, 2:00 PM)
Low39 °F (Jan 30, 8:00 AM)42% (Feb 6, 4:30 PM)29.53 "Hg (Feb 6, 5:00 PM)
Average53 °F78%30.34 "Hg
* Reported Jan 24 6:00 AM — Midnight between Feb 7 and Feb 8, Gijón, Weather by CustomWeather, © 2016

Note: Actual official high and low records may vary slightly from our data, if they occured in-between our weather recording intervals... More about our weather records

Advertising

Gijón Weather History for the Previous 24 Hours

 ConditionsComfort  
Time TempWeatherWind HumidityBarometerVisibility
12:00 AM
Mon, Feb 8
55 °FPassing clouds.13 mph63%30.04 "HgN/A
11:30 PM
Sun, Feb 7
55 °FPassing clouds.14 mph63%30.04 "HgN/A
11:00 PM55 °FPassing clouds.17 mph59%30.04 "HgN/A
10:30 PM54 °FPassing clouds.13 mph63%30.01 "HgN/A
10:00 PM52 °FPassing clouds.8 mph67%30.01 "HgN/A
9:30 PM50 °FPassing clouds.8 mph71%30.01 "HgN/A
9:00 PM55 °FPassing clouds.14 mph59%30.01 "HgN/A
8:30 PM55 °FPassing clouds.15 mph59%29.98 "HgN/A
8:00 PM55 °FPassing clouds.18 mph55%30.01 "HgN/A
7:30 PM54 °FPartly cloudy.16 mph58%30.01 "HgN/A
7:00 PM54 °FPartly cloudy.18 mph63%30.01 "HgN/A
6:30 PM54 °FBroken clouds.16 mph63%30.04 "HgN/A
6:00 PM55 °FBroken clouds.16 mph59%30.04 "HgN/A
5:30 PM55 °FBroken clouds.14 mph59%30.04 "HgN/A
5:00 PM55 °FBroken clouds.13 mph59%30.04 "HgN/A
4:30 PM54 °FBroken clouds.13 mph58%30.04 "HgN/A
4:00 PM55 °FBroken clouds.14 mph59%30.04 "HgN/A
3:30 PM54 °FScattered clouds.18 mph58%30.04 "HgN/A
3:00 PM54 °FScattered clouds.17 mph63%30.04 "HgN/A
2:30 PM55 °FScattered clouds.16 mph55%30.04 "HgN/A
2:00 PM54 °FScattered clouds.17 mph58%30.07 "HgN/A
1:30 PM54 °FScattered clouds.16 mph58%30.07 "HgN/A
1:00 PM52 °FBroken clouds.18 mph58%30.07 "HgN/A
12:30 PM52 °FScattered clouds.16 mph62%30.07 "HgN/A
12:00 PM52 °FScattered clouds.15 mph54%30.04 "HgN/A
11:30 AM50 °FScattered clouds.14 mph62%30.04 "HgN/A
11:00 AM48 °FScattered clouds.14 mph66%30.04 "HgN/A
10:30 AM48 °FScattered clouds.16 mph66%30.04 "HgN/A
10:00 AM46 °FScattered clouds.13 mph71%30.01 "Hg6 mi
9:30 AM45 °FScattered clouds.12 mph76%30.01 "Hg6 mi
9:00 AM45 °FScattered clouds.13 mph71%29.98 "Hg6 mi
8:30 AM45 °FPassing clouds.13 mph71%29.98 "Hg6 mi
8:00 AM45 °FPassing clouds.15 mph71%29.98 "Hg5 mi
7:30 AM45 °FPassing clouds.13 mph71%29.95 "Hg5 mi
7:00 AM45 °FPassing clouds.12 mph71%29.95 "Hg5 mi
6:30 AM46 °FPassing clouds.13 mph66%29.95 "Hg5 mi
6:00 AM46 °FPassing clouds.17 mph66%29.92 "Hg5 mi
Weather by CustomWeather, © 2016

See weather overviewHow to use our weather pages